Regional Weather Roundup
Issued by NWS Bismarck, ND

Home | Current Version | Previous Version | Text Only | Print | Product List | Glossary On
Versions: 1 2 3 4 5 6 7 8 9 10 11 12 13 14 15 16 17 18 19 20 21 22 23 24 25 26 27 28 29 30 31 32 33 34 35 36 37 38 39 40 41 42 43 44 45 46 47 48 49 50
000
ASUS43 KBIS 290059
RWRBIS

NWR BROADCAST TEXT
NATIONAL WEATHER SERVICE BISMARCK ND
800 PM CDT MON JUL 28 2014

NOTE: "FAIR" INDICATES FEW OR NO CLOUDS BELOW 12,000 FEET WITH NO
SIGNIFICANT WEATHER AND/OR OBSTRUCTIONS TO VISIBILITY.


CITY           SKY/WX    TMP DP  RH WIND       PRES   REMARKS
WILLISTON      SUNNY     80  49  33 SE7       30.20F
MINOT          SUNNY     71  56  58 NE3       30.22F
MINOT AFB      NOT AVBL
BISMARCK       SUNNY     73  51  46 E8        30.23F
DICKINSON      SUNNY     74  56  53 E7        30.23F
GARRISON         N/A     71  57  61 SE5       30.23F
HETTINGER ARPT MOSUNNY   73  51  46 E9        30.25F
JAMESTOWN      NOT AVBL
CARRINGTON     FAIR      68  55  64 CALM      30.24F
CROSBY         FAIR      73  59  60 E7        30.22F
HARVEY         FAIR      68  55  64 CALM      30.23F
HAZEN          FAIR      73  52  46 NE3       30.24F
LINTON         FAIR      72  52  49 N6        30.24S
MANDAN         FAIR      72  50  46 N6        30.25F
RUGBY          FAIR      68  55  64 NW5       30.22F
TIOGA          FAIR      73  55  53 E5        30.26F
WATFORD CITY   FAIR      75  55  50 SE9       30.20F
$$

CITY           SKY/WX    TMP DP  RH WIND       PRES   REMARKS
GRAND FORKS    PTCLDY    71  57  61 N5        30.18F
GRAND FORKS AF NOT AVBL
DEVILS LAKE    SUNNY     72  52  49 NW6       30.21S
FARGO          CLEAR     72  54  53 W7        30.18F
CAVALIER       FAIR      72  55  56 NW5       30.19F
GRAFTON        FAIR      72  55  56 NW6       30.19S
GWINNER        CLEAR     66  54  63 W5        30.23S
LANGDON        FAIR      70  54  56 NW5       30.22F
$$

CITY           SKY/WX    TMP DP  RH WIND       PRES   REMARKS
ABERDEEN       CLEAR     68  52  56 NE7       30.22F
MOBRIDGE       SUNNY     73  52  47 NE6       30.21F
BUFFALO          N/A     76  52  43 E13       30.18F
RAPID CITY     SUNNY     73  57  57 SE7       30.23F
GLASGOW        MOSUNNY   87  45  23 SE8       30.17S
SIDNEY         SUNNY     82  48  30 NE9       30.20F
WOLF POINT     SUNNY     86  45  23 E10       30.18S
GLENDIVE       SUNNY     82  46  28 E8        30.21S
MILES CITY     MOSUNNY   85  45  24 NE15      30.17F
BAKER          SUNNY     80  51  36 E14       30.23S
$$

CITY           SKY/WX    TMP DP  RH WIND       PRES   REMARKS
BILLINGS       PTSUNNY   87  48  25 NE14      30.16F
GREAT FALLS    PTSUNNY   87  42  20 N5        30.12F
$$




USA.gov is the U.S. government's official web portal to all federal, state and local government web resources and services.